QPF
0.00 0.00 0.00 0.00 0.00 0.00 0.00 0.00 0.00 0.00 0.00 0.00 0.00 0.00 0.00 0.00 0.00 0.00 0.04 0.01 0.01 0.00 0.00 0.00 0.00 0.00 0.00 0.00 0.00 0.00 0.00 0.00 0.00 0.00 0.00 0.00 0.00 0.00 0.00 0.00 0.00 0.00 0.01
0.00 0.00 0.00 0.00 0.00 0.00 0.00 0.00 0.00 0.00 0.00 0.00 0.01 0.00 0.00 0.00 0.00 0.00 0.00 0.00 0.00 0.00 0.00 0.05 0.00 0.00 0.00 0.00 0.00 0.00 0.00 0.00 0.01 0.02 0.01 0.00 0.00 0.00 0.00 0.00 0.00 0.00 0.00
0.00 0.00 0.00 0.00 0.00 0.00 0.00 0.00 0.00 0.00 0.00 0.00 0.00 0.00 0.00 0.00 0.00 0.01 0.01 0.04 0.02 0.00 0.00 0.03 0.02 0.00 0.01 0.00 0.00 0.00 0.00 0.00 0.02 0.07 0.06 0.00 0.00 0.00 0.00 0.00 0.00 0.00 0.00
0.00 0.00 0.00 0.00 0.00 0.00 0.00 0.00 0.00 0.00 0.00 0.00 0.00 0.00 0.00 0.00 0.00 0.00 0.00 0.02 0.06 0.00 0.01 0.01 0.02 0.00 0.00 0.00 0.00 0.00 0.00 0.04 0.04 0.04 0.04 0.02 0.00 0.00 0.00 0.00 0.00 0.00 0.00
0.00 0.00 0.00 0.00 0.00 0.00 0.00 0.00 0.00 0.00 0.00 0.00 0.00 0.00 0.00 0.00 0.00 0.00 0.00 0.00 0.01 0.00 0.01 0.00 0.00 0.00 0.00 0.00 0.00 0.00 0.02 0.05 0.02 0.01 0.01 0.01 0.00 0.00 0.00 0.00 0.00 0.00 0.00
0.00 0.00 0.00 0.00 0.00 0.00 0.00 0.00 0.00 0.00 0.00 0.00 0.00 0.00 0.00 0.00 0.00 0.01 0.02 0.00 0.00 0.00 0.00 0.00 0.00 0.02 0.01 0.00 0.00 0.00 0.01 0.04 0.07 0.07 0.08 0.03 0.01 0.00 0.00 0.00 0.00 0.00 0.00
0.00 0.00 0.00 0.00 0.00 0.00 0.00 0.00 0.00 0.00 0.00 0.00 0.00 0.00 0.00 0.00 0.00 0.01 0.01 0.00 0.00 0.00 0.00 0.00 0.00 0.00 0.00 0.00 0.00 0.00 0.00 0.05 0.08 0.05 0.03 0.03 0.01 0.03 0.00 0.00 0.00 0.00 0.00
0.01 0.00 0.00 0.00 0.00 0.00 0.00 0.00 0.00 0.00 0.00 0.00 0.00 0.00 0.01 0.01 0.00 0.00 0.00 0.00 0.00 0.00 0.00 0.00 0.00 0.00 0.00 0.00 0.00 0.00 0.01 0.02 0.01 0.03 0.06 0.01 0.01 0.00 0.00 0.00 0.00 0.00 0.00
0.02 0.00 0.00 0.00 0.00 0.00 0.00 0.00 0.00 0.00 0.00 0.00 0.00 0.00 0.00 0.00 0.00 0.00 0.00 0.00 0.00 0.00 0.00 0.00 0.00 0.00 0.00 0.00 0.00 0.00 0.01 0.02 0.00 0.02 0.05 0.01 0.02 0.00 0.00 0.00 0.00 0.00 0.00
0.00 0.00 0.00 0.00 0.00 0.00 0.00 0.00 0.00 0.00 0.00 0.00 0.00 0.00 0.00 0.00 0.01 0.00 0.00 0.00 0.00 0.00 0.00 0.00 0.00 0.00 0.00 0.00 0.00 0.00 0.01 0.04 0.03 0.05 0.04 0.03 0.06 0.02 0.00 0.00 0.00 0.00 0.00
0.00 0.00 0.00 0.00 0.00 0.00 0.00 0.00 0.00 0.00 0.00 0.00 0.00 0.00 0.00 0.00 0.03 0.00 0.00 0.00 0.00 0.00 0.00 0.00 0.00 0.00 0.00 0.00 0.00 0.00 0.00 0.03 0.02 0.01 0.00 0.02 0.03 0.02 0.00 0.00 0.00 0.00 0.00
0.00 0.00 0.00 0.00 0.00 0.00 0.00 0.00 0.00 0.00 0.00 0.00 0.00 0.00 0.00 0.00 0.01 0.02 0.02 0.04 0.02 0.00 0.00 0.00 0.00 0.00 0.00 0.00 0.00 0.00 0.00 0.04 0.01 0.00 0.01 0.00 0.00 0.01 0.00 0.00 0.00 0.00 0.00
0.00 0.00 0.00 0.00 0.00 0.00 0.02 0.00 0.00 0.00 0.00 0.00 0.01 0.01 0.03 0.01 0.03 0.04 0.09 0.07 0.08 0.02 0.00 0.00 0.00 0.00 0.00 0.00 0.02 0.00 0.00 0.00 0.01 0.02 0.02 0.00 0.00 0.01 0.01 0.00 0.00 0.00 0.00
0.00 0.00 0.00 0.00 0.03 0.05 0.04 0.07 0.04 0.00 0.00 0.00 0.00 0.00 0.01 0.09 0.02 0.09 0.16 0.10 0.07 0.04 0.02 0.00 0.06 0.04 0.01 0.01 0.00 0.04 0.01 0.00 0.03 0.03 0.02 0.01 0.00 0.03 0.01 0.01 0.00 0.00 0.00
0.00 0.00 0.00 0.00 0.00 0.01 0.00 0.05 0.08 0.13 0.04 0.10 0.06 0.03 0.06 0.04 0.03 0.04 0.05 0.21 0.06 0.01 0.06 0.08 0.09 0.10 0.00 0.02 0.05 0.06 0.04 0.01 0.02 0.05 0.01 0.06 0.05 0.04 0.02 0.01 0.00 0.00 0.00
0.00 0.00 0.00 0.00 0.01 0.02 0.01 0.04 0.04 0.04 0.04 0.11 0.08 0.05 0.06 0.03 0.02 0.02 0.05 0.04 0.04 0.05 0.11 0.07 0.12 0.01 0.01 0.06 0.10 0.06 0.04 0.05 0.02 0.04 0.03 0.06 0.08 0.07 0.03 0.02 0.02 0.00 0.00
0.00 0.00 0.00 0.01 0.04 0.09 0.07 0.04 0.02 0.00 0.03 0.11 0.08 0.01 0.01 0.00 0.01 0.00 0.00 0.03 0.02 0.00 0.02 0.04 0.06 0.01 0.02 0.07 0.06 0.06 0.07 0.05 0.02 0.04 0.03 0.01 0.02 0.04 0.06 0.05 0.03 0.01 0.00
0.00 0.00 0.03 0.21 0.36 0.24 0.20 0.17 0.13 0.06 0.03 0.03 0.01 0.00 0.00 0.00 0.02 0.07 0.01 0.04 0.06 0.07 0.01 0.00 0.00 0.02 0.00 0.01 0.03 0.04 0.06 0.08 0.04 0.05 0.09 0.01 0.02 0.02 0.05 0.05 0.04 0.06 0.03
0.00 0.00 0.08 0.33 0.54 0.32 0.25 0.17 0.12 0.07 0.05 0.04 0.01 0.00 0.00 0.05 0.05 0.09 0.07 0.07 0.09 0.10 0.09 0.01 0.00 0.01 0.06 0.02 0.03 0.03 0.00 0.00 0.01 0.06 0.08 0.04 0.04 0.09 0.06 0.02 0.05 0.04 0.03
0.00 0.00 0.26 0.37 0.16 0.11 0.09 0.08 0.07 0.23 0.16 0.08 0.00 0.00 0.00 0.01 0.03 0.05 0.04 0.09 0.20 0.08 0.07 0.16 0.15 0.16 0.17 0.14 0.05 0.02 0.01 0.00 0.04 0.04 0.03 0.04 0.02 0.09 0.11 0.07 0.05 0.00 0.00
0.00 0.01 0.42 0.25 0.20 0.14 0.01 0.00 0.07 0.27 0.33 0.11 0.00 0.00 0.02 0.05 0.03 0.03 0.11 0.15 0.20 0.19 0.12 0.24 0.25 0.25 0.16 0.12 0.11 0.10 0.05 0.03 0.06 0.03 0.01 0.02 0.01 0.07 0.10 0.12 0.13 0.01 0.00
0.01 0.09 0.26 0.18 0.21 0.08 0.00 0.00 0.04 0.22 0.33 0.20 0.03 0.00 0.01 0.03 0.04 0.02 0.01 0.05 0.04 0.06 0.07 0.10 0.16 0.20 0.09 0.12 0.12 0.13 0.08 0.02 0.02 0.03 0.00 0.03 0.05 0.02 0.02 0.08 0.08 0.04 0.02
0.00 0.01 0.10 0.18 0.09 0.03 0.15 0.11 0.04 0.12 0.12 0.08 0.01 0.00 0.00 0.00 0.00 0.00 0.00 0.00 0.01 0.01 0.05 0.11 0.15 0.07 0.02 0.11 0.15 0.11 0.09 0.04 0.04 0.03 0.02 0.02 0.10 0.09 0.11 0.10 0.25 0.10 0.02
0.00 0.00 0.02 0.05 0.04 0.16 0.26 0.08 0.03 0.07 0.03 0.01 0.00 0.00 0.00 0.00 0.00 0.01 0.06 0.02 0.01 0.00 0.00 0.08 0.14 0.07 0.03 0.02 0.07 0.02 0.11 0.12 0.04 0.04 0.07 0.08 0.09 0.10 0.10 0.11 0.11 0.10 0.16
0.00 0.00 0.00 0.00 0.05 0.15 0.24 0.07 0.08 0.03 0.01 0.00 0.00 0.00 0.00 0.00 0.00 0.01 0.02 0.00 0.01 0.00 0.01 0.04 0.11 0.15 0.06 0.00 0.00 0.01 0.07 0.10 0.11 0.02 0.01 0.04 0.10 0.05 0.04 0.15 0.20 0.28 0.18
0.00 0.00 0.00 0.00 0.00 0.05 0.12 0.10 0.03 0.00 0.00 0.00 0.00 0.00 0.00 0.01 0.00 0.01 0.00 0.00 0.00 0.00 0.01 0.09 0.10 0.19 0.20 0.08 0.06 0.01 0.05 0.12 0.12 0.13 0.05 0.03 0.05 0.01 0.02 0.13 0.16 0.29 0.07
MSLP
1012.96 1012.71 1012.85 1013.03 1013.23 1013.50 1013.97 1014.20 1014.53 1014.77 1015.09 1015.35 1015.59 1015.74 1015.78 1015.91 1016.14 1016.38 1016.66 1016.85 1017.03 1017.21 1017.36 1017.60 1017.65 1017.79 1017.95 1018.02 1018.19 1018.37 1018.69 1018.81 1018.95 1018.98 1019.14 1019.25 1019.50 1019.72 1019.87 1019.82 1020.03 1020.31 1020.44
1012.31 1012.64 1012.82 1013.14 1013.39 1013.65 1014.03 1014.24 1014.59 1014.88 1015.19 1015.52 1015.75 1015.93 1016.08 1016.26 1016.40 1016.60 1016.75 1016.97 1017.12 1017.35 1017.31 1017.48 1017.62 1017.75 1017.95 1018.04 1018.29 1018.46 1018.80 1019.01 1019.22 1019.29 1019.38 1019.51 1019.68 1019.83 1019.89 1020.03 1020.33 1020.59 1020.69
1012.30 1012.72 1012.98 1013.27 1013.49 1013.76 1014.13 1014.51 1014.88 1015.14 1015.40 1015.67 1015.94 1016.16 1016.23 1016.38 1016.57 1016.73 1016.83 1017.02 1017.23 1017.24 1017.34 1017.32 1017.55 1017.69 1017.85 1018.08 1018.37 1018.63 1018.94 1019.02 1019.12 1019.39 1019.60 1019.93 1019.95 1019.94 1020.08 1020.35 1020.57 1020.80 1020.88
1012.17 1012.83 1013.19 1013.45 1013.70 1014.00 1014.29 1014.57 1014.95 1015.26 1015.55 1015.88 1016.12 1016.27 1016.38 1016.48 1016.62 1016.79 1016.95 1017.15 1017.20 1017.30 1017.31 1017.36 1017.51 1017.69 1017.90 1018.10 1018.45 1018.76 1019.04 1019.03 1019.25 1019.54 1019.82 1020.00 1020.12 1020.22 1020.37 1020.56 1020.80 1020.98 1021.12
1012.40 1012.91 1013.33 1013.73 1014.01 1014.26 1014.52 1014.77 1015.02 1015.34 1015.66 1015.99 1016.35 1016.46 1016.58 1016.66 1016.69 1016.84 1016.99 1017.15 1017.22 1017.40 1017.29 1017.35 1017.61 1017.79 1017.93 1018.26 1018.51 1018.89 1019.16 1019.13 1019.16 1019.39 1019.91 1020.02 1020.39 1020.43 1020.53 1020.71 1020.90 1021.12 1021.26
1012.67 1013.23 1013.56 1013.88 1014.22 1014.42 1014.68 1014.97 1015.24 1015.47 1015.74 1016.00 1016.37 1016.52 1016.64 1016.75 1016.85 1016.93 1017.10 1017.24 1017.35 1017.39 1017.41 1017.53 1017.68 1017.86 1017.93 1018.21 1018.42 1018.88 1019.19 1019.11 1019.55 1019.58 1019.74 1019.91 1020.37 1020.40 1020.48 1020.69 1020.89 1021.19 1021.39
1012.74 1013.32 1013.77 1014.08 1014.36 1014.69 1014.82 1015.12 1015.36 1015.52 1015.70 1015.92 1016.20 1016.56 1016.73 1016.84 1016.89 1017.06 1017.21 1017.28 1017.45 1017.44 1017.52 1017.62 1017.63 1017.71 1017.79 1017.93 1018.24 1018.56 1018.93 1019.17 1019.35 1019.50 1019.56 1020.01 1020.17 1020.21 1020.49 1020.71 1020.97 1021.26 1021.50
1013.10 1013.26 1013.76 1014.26 1014.51 1014.81 1014.97 1015.16 1015.43 1015.76 1015.91 1016.13 1016.24 1016.49 1016.74 1016.95 1016.96 1017.11 1017.20 1017.26 1017.33 1017.49 1017.59 1017.80 1017.77 1017.72 1017.92 1018.09 1018.30 1018.68 1018.93 1019.03 1019.22 1019.50 1019.71 1019.98 1019.98 1020.22 1020.48 1020.75 1021.07 1021.23 1021.54
1013.41 1013.37 1013.77 1014.24 1014.58 1014.82 1015.07 1015.26 1015.50 1015.84 1016.02 1016.19 1016.45 1016.51 1016.62 1016.78 1016.90 1017.05 1017.06 1017.13 1017.29 1017.50 1017.70 1017.93 1017.93 1017.97 1018.15 1018.41 1018.47 1018.81 1019.08 1019.00 1019.24 1019.43 1019.56 1019.85 1020.01 1020.27 1020.51 1020.73 1021.05 1021.28 1021.49
1013.38 1013.39 1013.79 1014.06 1014.48 1014.85 1015.01 1015.25 1015.48 1015.80 1016.13 1016.27 1016.53 1016.67 1016.70 1016.90 1016.97 1017.07 1017.24 1017.18 1017.24 1017.43 1017.60 1017.85 1018.03 1018.12 1018.36 1018.63 1018.73 1018.78 1019.17 1019.23 1019.31 1019.22 1019.45 1019.68 1019.92 1020.17 1020.49 1020.58 1020.94 1021.32 1021.48
1013.27 1013.55 1013.74 1014.02 1014.53 1014.81 1015.15 1015.35 1015.36 1015.59 1015.99 1016.25 1016.43 1016.57 1016.75 1016.96 1017.03 1017.04 1017.20 1017.33 1017.33 1017.47 1017.65 1017.79 1017.97 1018.17 1018.43 1018.67 1018.80 1019.04 1019.25 1019.51 1019.31 1019.37 1019.21 1019.50 1019.76 1019.95 1020.31 1020.53 1020.79 1021.22 1021.43
1013.16 1013.64 1013.85 1013.88 1014.44 1014.91 1015.11 1015.57 1015.89 1015.84 1016.04 1016.25 1016.32 1016.45 1016.72 1016.83 1016.90 1016.96 1017.08 1017.13 1017.44 1017.51 1017.48 1017.63 1017.84 1018.05 1018.32 1018.60 1018.80 1019.02 1019.29 1019.37 1019.49 1019.37 1018.92 1019.24 1019.45 1019.63 1020.07 1020.38 1020.59 1020.92 1021.27
1012.50 1012.97 1013.45 1013.74 1014.03 1014.58 1015.04 1015.64 1015.97 1016.05 1016.16 1016.28 1016.27 1016.45 1016.52 1016.49 1016.57 1016.69 1017.04 1017.07 1017.35 1017.50 1017.57 1017.68 1017.87 1018.02 1018.06 1018.26 1018.48 1018.79 1018.98 1019.09 1019.47 1019.27 1019.10 1019.11 1019.38 1019.47 1019.80 1020.11 1020.40 1020.65 1020.89
1012.21 1012.45 1012.86 1013.16 1013.77 1014.16 1014.76 1015.24 1015.63 1015.83 1016.04 1016.04 1015.95 1015.84 1016.18 1016.62 1016.45 1016.66 1016.78 1016.94 1017.21 1017.31 1017.39 1017.42 1017.88 1017.86 1017.99 1018.09 1018.18 1018.44 1018.63 1018.67 1019.07 1019.42 1019.19 1019.01 1019.43 1019.37 1019.60 1019.82 1020.02 1020.34 1020.67
1012.06 1012.38 1012.56 1012.81 1013.31 1013.64 1014.28 1014.84 1015.26 1015.60 1015.54 1015.44 1015.51 1015.58 1015.85 1016.25 1016.41 1016.37 1016.80 1016.89 1016.86 1017.02 1017.12 1017.53 1017.72 1017.84 1017.79 1017.95 1017.99 1018.11 1018.43 1018.29 1018.44 1018.88 1019.11 1019.02 1019.32 1019.39 1019.40 1019.55 1019.67 1020.08 1020.41
1011.74 1012.02 1012.24 1012.66 1013.18 1013.55 1014.21 1014.51 1014.94 1015.01 1014.75 1014.99 1015.57 1015.28 1015.23 1015.58 1016.11 1016.20 1016.64 1016.82 1017.09 1017.10 1017.05 1017.29 1017.48 1017.42 1017.25 1017.51 1017.68 1017.79 1018.00 1018.13 1018.11 1018.54 1018.66 1018.78 1018.92 1019.11 1019.10 1019.14 1019.39 1019.71 1019.96
1011.30 1011.40 1012.20 1013.04 1013.62 1014.57 1014.74 1014.39 1014.54 1014.45 1014.44 1015.68 1015.00 1015.51 1014.74 1014.99 1015.53 1015.87 1016.16 1016.43 1016.59 1016.70 1017.20 1017.25 1017.29 1017.33 1017.56 1017.45 1017.43 1017.48 1017.71 1017.91 1018.01 1017.96 1018.21 1018.39 1018.49 1018.78 1018.78 1018.90 1019.00 1019.31 1019.49
1010.92 1011.60 1012.94 1014.17 1015.11 1015.49 1016.27 1016.22 1015.67 1015.50 1015.08 1014.63 1015.00 1014.41 1014.17 1014.53 1015.02 1015.39 1016.02 1016.21 1016.18 1016.46 1016.78 1017.22 1017.65 1017.64 1017.58 1017.51 1017.32 1017.43 1017.61 1017.58 1017.73 1017.90 1017.98 1017.94 1018.15 1018.27 1018.51 1018.48 1018.58 1018.76 1018.96
1010.98 1012.67 1013.72 1014.62 1015.01 1015.50 1015.38 1015.98 1015.92 1015.77 1015.60 1014.70 1013.68 1013.98 1013.95 1014.39 1014.63 1014.96 1015.45 1015.66 1015.53 1016.30 1016.65 1017.06 1017.28 1017.41 1017.70 1017.59 1017.34 1017.23 1017.25 1017.49 1017.42 1017.40 1017.48 1017.60 1017.76 1017.78 1018.08 1018.15 1018.01 1018.14 1018.44
1010.77 1012.84 1013.24 1013.59 1014.82 1015.46 1015.40 1015.30 1016.11 1016.29 1015.64 1015.33 1013.74 1013.75 1013.93 1014.09 1014.19 1014.84 1015.12 1015.32 1015.24 1015.69 1016.36 1016.66 1016.74 1016.93 1017.33 1017.43 1017.17 1017.37 1017.16 1017.31 1017.13 1017.31 1017.06 1017.04 1017.17 1017.23 1017.44 1017.81 1017.89 1017.93 1018.04
1011.14 1012.25 1012.91 1013.99 1015.45 1015.46 1016.10 1016.42 1016.60 1017.03 1016.71 1015.66 1013.86 1013.73 1014.12 1014.16 1014.11 1014.39 1014.83 1015.21 1015.30 1015.48 1015.50 1015.89 1016.31 1016.79 1017.19 1017.02 1017.16 1017.38 1017.38 1016.87 1016.99 1017.18 1016.93 1016.90 1016.87 1016.81 1017.17 1017.38 1017.58 1017.66 1017.86
1011.34 1012.70 1013.42 1014.17 1015.30 1016.07 1016.16 1016.39 1016.16 1016.94 1016.09 1016.42 1014.40 1014.02 1014.03 1014.10 1014.13 1014.17 1014.66 1015.10 1015.18 1015.20 1015.24 1015.36 1015.61 1016.30 1016.65 1016.68 1016.90 1017.61 1017.97 1016.99 1016.81 1016.66 1016.96 1016.99 1016.78 1016.55 1016.69 1017.22 1017.37 1017.42 1017.49
1011.05 1012.37 1013.30 1014.42 1015.33 1016.08 1015.88 1015.93 1015.66 1016.53 1016.65 1015.64 1014.57 1014.50 1014.24 1013.86 1013.88 1014.06 1014.44 1014.69 1014.93 1014.97 1015.06 1015.04 1015.23 1015.53 1016.03 1016.41 1016.51 1016.98 1017.16 1017.08 1016.84 1016.51 1016.44 1016.36 1016.43 1016.60 1016.50 1016.56 1016.96 1016.79 1017.06
1011.05 1012.08 1013.06 1013.84 1015.01 1015.53 1015.42 1015.88 1015.99 1016.03 1015.75 1014.82 1014.77 1014.64 1014.45 1013.98 1014.07 1014.23 1014.62 1014.43 1014.52 1014.65 1014.85 1014.97 1014.85 1014.85 1015.28 1015.88 1016.44 1016.19 1016.27 1016.88 1016.90 1016.86 1016.22 1016.03 1016.25 1016.31 1016.26 1016.20 1015.91 1016.30 1016.99
1011.16 1011.63 1012.29 1013.37 1014.67 1015.12 1015.44 1015.69 1015.82 1016.08 1015.21 1014.89 1014.88 1014.86 1014.79 1014.63 1014.64 1014.79 1014.58 1014.32 1014.36 1014.30 1014.29 1014.34 1014.38 1014.54 1014.64 1015.02 1015.46 1015.87 1016.12 1016.19 1016.53 1016.88 1016.91 1016.52 1016.27 1016.11 1015.93 1015.95 1016.04 1016.80 1017.20
1011.09 1011.69 1012.27 1012.89 1013.54 1014.05 1014.85 1015.11 1015.21 1015.32 1015.18 1015.38 1015.33 1015.34 1015.20 1015.24 1015.53 1015.05 1014.70 1014.31 1014.08 1014.13 1013.92 1013.79 1013.86 1014.07 1014.18 1014.39 1014.91 1015.17 1015.50 1016.07 1016.51 1016.93 1016.99 1016.81 1016.51 1016.23 1016.13 1016.23 1016.50 1017.06 1016.86
Thickness
5793 5796 5795 5795 5794 5793 5790 5790 5788 5785 5782 5780 5777 5777 5779 5778 5777 5774 5772 5770 5770 5770 5769 5769 5769 5768 5766 5766 5765 5762 5758 5757 5756 5754 5752 5752 5750 5749 5747 5747 5745 5744 5742
5800 5797 5796 5794 5794 5793 5791 5789 5787 5785 5782 5779 5776 5775 5775 5774 5775 5773 5773 5770 5770 5769 5771 5771 5771 5770 5768 5767 5766 5763 5759 5756 5754 5753 5752 5751 5751 5749 5748 5747 5745 5743 5742
5802 5798 5796 5794 5792 5790 5787 5785 5782 5781 5779 5777 5774 5772 5773 5772 5771 5771 5772 5770 5769 5771 5772 5773 5773 5772 5771 5769 5766 5764 5761 5760 5758 5756 5753 5750 5750 5750 5748 5747 5745 5743 5743
5803 5797 5794 5791 5790 5788 5787 5785 5782 5779 5777 5775 5774 5773 5773 5773 5772 5771 5771 5770 5769 5771 5772 5773 5774 5774 5772 5770 5767 5763 5763 5763 5760 5757 5754 5752 5749 5750 5749 5747 5746 5744 5743
5801 5796 5791 5788 5786 5785 5784 5782 5781 5779 5776 5773 5770 5771 5771 5771 5772 5771 5770 5770 5770 5770 5772 5772 5772 5772 5772 5770 5768 5763 5762 5763 5765 5761 5756 5754 5750 5750 5750 5748 5746 5745 5743
5798 5793 5790 5787 5785 5784 5782 5780 5778 5776 5775 5773 5769 5768 5768 5769 5769 5769 5768 5768 5768 5767 5768 5767 5769 5769 5771 5771 5769 5764 5763 5764 5762 5761 5758 5756 5752 5752 5752 5750 5747 5745 5744
5797 5792 5788 5785 5783 5781 5780 5778 5777 5775 5775 5774 5771 5767 5766 5766 5766 5767 5766 5766 5765 5766 5765 5765 5768 5770 5771 5772 5769 5766 5763 5762 5762 5762 5761 5756 5753 5754 5752 5751 5749 5746 5744
5791 5793 5788 5784 5782 5779 5778 5778 5776 5774 5772 5770 5770 5768 5766 5764 5764 5764 5764 5765 5764 5764 5764 5764 5766 5768 5769 5769 5768 5765 5763 5762 5761 5760 5758 5756 5757 5755 5754 5752 5749 5748 5745
5787 5791 5788 5784 5781 5779 5777 5776 5774 5772 5771 5770 5768 5767 5766 5765 5764 5764 5765 5766 5764 5763 5762 5762 5764 5764 5764 5763 5765 5762 5762 5763 5762 5760 5760 5759 5759 5756 5754 5752 5749 5748 5746
5792 5791 5788 5785 5782 5779 5778 5775 5773 5772 5769 5767 5765 5765 5765 5763 5763 5763 5763 5763 5763 5762 5762 5761 5761 5761 5759 5758 5759 5760 5758 5758 5761 5763 5764 5762 5760 5758 5755 5754 5751 5747 5746
5793 5791 5788 5785 5780 5778 5775 5773 5773 5771 5768 5766 5764 5765 5763 5763 5761 5761 5761 5761 5760 5760 5759 5758 5758 5757 5755 5753 5753 5753 5753 5756 5760 5762 5765 5762 5762 5760 5757 5755 5752 5747 5746
5790 5789 5789 5786 5780 5776 5774 5770 5767 5767 5765 5764 5763 5763 5761 5762 5762 5761 5760 5760 5756 5756 5759 5759 5757 5755 5753 5753 5750 5749 5750 5753 5756 5761 5765 5763 5761 5761 5759 5755 5754 5750 5746
5799 5795 5791 5788 5784 5777 5774 5768 5766 5765 5764 5763 5761 5760 5759 5761 5762 5760 5758 5758 5756 5755 5756 5755 5756 5756 5756 5756 5754 5751 5750 5752 5752 5757 5761 5761 5759 5759 5760 5756 5755 5752 5748
5798 5798 5797 5793 5786 5782 5777 5772 5768 5765 5762 5762 5763 5765 5762 5759 5760 5759 5759 5757 5756 5755 5754 5757 5756 5757 5757 5757 5757 5755 5752 5753 5751 5750 5755 5757 5756 5758 5758 5756 5756 5752 5747
5797 5797 5797 5796 5791 5788 5782 5775 5769 5765 5766 5766 5764 5763 5762 5760 5757 5758 5756 5754 5754 5752 5753 5753 5754 5756 5756 5755 5755 5755 5753 5755 5753 5751 5751 5754 5753 5754 5756 5755 5755 5751 5749
5803 5800 5799 5794 5788 5783 5778 5775 5771 5770 5772 5769 5761 5765 5766 5763 5757 5756 5756 5753 5750 5749 5750 5749 5752 5755 5756 5754 5753 5755 5754 5753 5753 5751 5752 5753 5751 5752 5754 5756 5754 5751 5751
5806 5806 5798 5789 5779 5767 5769 5771 5771 5773 5774 5758 5761 5759 5768 5766 5759 5755 5755 5755 5752 5749 5745 5747 5750 5750 5749 5751 5753 5753 5753 5750 5750 5751 5751 5753 5753 5750 5752 5754 5754 5752 5752
5808 5799 5789 5772 5760 5756 5751 5754 5764 5765 5768 5766 5762 5769 5772 5766 5761 5758 5752 5753 5752 5750 5747 5743 5742 5744 5746 5748 5751 5751 5749 5749 5748 5748 5749 5752 5752 5752 5749 5751 5752 5753 5754
5807 5788 5776 5765 5758 5752 5751 5751 5756 5760 5762 5768 5774 5772 5771 5765 5762 5759 5754 5751 5753 5746 5746 5743 5741 5742 5741 5743 5747 5748 5748 5744 5746 5748 5749 5750 5750 5752 5750 5749 5754 5755 5754
5808 5787 5779 5774 5756 5747 5743 5749 5749 5747 5753 5759 5769 5770 5767 5765 5764 5757 5752 5750 5753 5750 5743 5743 5741 5740 5736 5737 5743 5742 5746 5743 5744 5746 5752 5752 5751 5752 5752 5751 5753 5753 5753
5803 5787 5782 5770 5750 5744 5737 5731 5735 5732 5737 5749 5764 5767 5763 5763 5763 5759 5753 5747 5747 5747 5747 5743 5739 5736 5732 5734 5733 5733 5738 5745 5744 5739 5744 5748 5749 5750 5750 5750 5751 5752 5751
5799 5785 5777 5768 5752 5742 5740 5735 5739 5734 5730 5736 5757 5762 5762 5762 5761 5759 5754 5746 5745 5744 5745 5743 5741 5735 5732 5731 5729 5715 5717 5734 5740 5739 5740 5743 5745 5747 5747 5744 5745 5748 5747
5803 5787 5778 5766 5752 5744 5745 5742 5749 5741 5737 5745 5755 5756 5758 5759 5757 5756 5751 5747 5744 5743 5740 5740 5740 5739 5730 5730 5732 5721 5717 5720 5731 5740 5743 5745 5743 5742 5743 5744 5744 5745 5745
5801 5795 5781 5772 5756 5751 5751 5744 5743 5741 5744 5753 5752 5755 5754 5757 5755 5751 5745 5745 5745 5742 5738 5736 5738 5738 5736 5727 5726 5731 5730 5724 5722 5724 5739 5743 5742 5743 5744 5744 5746 5745 5740
5800 5794 5788 5774 5759 5753 5749 5749 5747 5745 5751 5754 5751 5750 5748 5749 5747 5741 5742 5744 5743 5744 5742 5739 5737 5735 5735 5731 5727 5723 5724 5726 5727 5722 5720 5728 5736 5740 5742 5744 5742 5735 5731
5799 5791 5785 5776 5767 5762 5755 5751 5748 5747 5748 5744 5745 5744 5743 5742 5735 5738 5739 5742 5742 5742 5742 5741 5739 5735 5733 5732 5729 5727 5725 5720 5716 5717 5715 5719 5724 5731 5735 5737 5733 5727 5728